GLOBALSTAR M027 [+]

Last updated on Nov. 22, 2019, 4:19 a.m. UTC

1 25884U 99043B   19324.94697356 -.00000056  00000-0  27104-3 0  9999
2 25884  52.0221 313.0915 0021802 304.7040  55.1699 11.04357162916375
UTC
Height (km)
Latitude
Longitude
Inclination
Orbital Period
UTC large
Height (km)
Speed (km/s)
/
Latitude / Longitude
Inclination (degrees)
Orbital Period (minutes)
Azimuth
Elevation
Range (km)
Doppler Factor
iOS Compass Heading
iOS Angle